[[{"header":{"parameterUnit":"m.s-1","parameterCategory":1,"la1":30.2991,"la2":30.254,"lo1":-89.0895,"lo2":-89.0444,"dy":0.0017,"dx":0.0017,"nx":28,"ny":28,"refTime":"2024-03-01T09:00:00:Z","depth":0,"parameterNumber":2,"parameterNumberName":"U-component_of_WINDS"},"data":[0,0,0,0,0,0,0,0,0,0,0,0,0,0,0,0,0,0,0,0,0,0,0,0,0,0,0,0,0,0,0,0,0,0,0,0,0,0,0,0,0,0,0,0,0,0,0,0,0,0,0,0,0,0,0,0,0,0,-0.7887,-0.7887,0,-0.7875,-0.7875,-0.7875,-0.7864,-0.7864,-0.7864,-0.7864,-0.7851,-0.785,-0.785,0,0,0,0,0,0,0,0,0,0,0,0,0,-0.79,-0.79,-0.7887,-0.7887,-0.7887,-0.7875,-0.7875,-0.7875,-0.7864,-0.7864,-0.7864,-0.7864,-0.7851,-0.785,-0.785,0,0,0,0,0,0,0,0,0,0,0,0,0,-0.7892,-0.79,-0.7887,-0.788,-0.788,-0.7875,-0.7875,-0.7875,-0.7864,-0.7864,-0.7864,-0.7864,-0.7851,-0.785,-0.785,-0.7851,0,0,-0.7849,-0.7849,0,0,0,0,0,0,0,0,-0.7892,-0.7891,-0.7881,-0.7881,-0.788,-0.7871,-0.7875,-0.7867,-0.7864,-0.787,-0.7864,-0.7864,-0.7858,-0.7857,-0.7855,-0.7851,-0.785,-0.7849,-0.7849,-0.7849,-0.7848,0,0,0,0,0,0,0,-0.7893,-0.7892,-0.7882,-0.7881,-0.788,-0.7877,-0.7876,-0.7873,-0.7865,-0.787,-0.7869,-0.7868,-0.7857,-0.7855,-0.7854,-0.785,-0.7849,-0.7849,-0.7848,-0.7848,-0.7846,-0.7846,0,0,0,0,0,0,-0.7895,-0.7892,-0.7883,-0.7882,-0.7886,-0.7877,-0.7876,-0.7874,-0.7865,-0.7863,-0.7868,-0.7867,-0.7856,-0.7855,-0.7854,-0.7855,-0.7849,-0.7848,-0.7848,-0.7846,-0.7846,-0.7846,0,0,0,0,0,0,-0.7895,-0.7894,-0.7883,-0.7887,-0.7885,-0.7877,-0.7875,-0.7874,-0.7872,-0.7864,-0.7862,-0.7867,-0.7856,-0.7854,-0.7852,-0.7854,-0.7848,-0.7848,-0.7846,-0.7846,-0.7846,-0.7856,0,0,0,0,0,0,-0.7895,-0.7894,-0.7895,-0.7887,-0.7885,-0.7882,-0.7876,-0.7874,-0.7872,-0.7871,-0.7863,-0.7861,-0.7855,-0.7853,-0.7852,-0.7853,-0.7847,-0.7846,-0.7846,-0.7846,-0.7856,-0.7857,-0.7858,0,0,0,0,0,-0.7896,-0.7898,-0.7895,-0.7894,-0.7886,-0.7882,-0.7881,-0.7875,-0.7872,-0.7872,-0.7867,-0.7862,-0.7854,-0.7853,-0.7851,-0.7853,-0.7846,-0.7846,-0.7846,-0.7855,-0.7857,-0.7858,0,0,0,0,0,0,-0.7906,-0.7897,-0.7893,-0.7893,-0.7889,-0.7881,-0.7881,-0.7876,-0.7872,-0.7872,-0.7864,-0.7862,-0.7861,-0.7856,-0.7855,-0.7854,-0.7849,-0.7849,-0.7856,-0.7858,-0.7859,-0.786,-0.7847,0,0,0,0,0,-0.7908,-0.7906,-0.7898,-0.7898,-0.7896,-0.7889,-0.7887,-0.7883,-0.7878,-0.7876,-0.787,-0.7865,-0.7861,-0.7859,-0.7856,-0.7855,-0.7853,-0.7856,-0.7857,-0.7858,-0.7858,-0.7857,-0.7858,-0.7848,-0.7848,-0.7848,0,0,-0.7912,-0.7907,-0.7906,-0.79,-0.7896,-0.7894,-0.7888,-0.7886,-0.7884,-0.7875,-0.7873,-0.7869,-0.7862,-0.7861,-0.786,-0.7858,-0.786,-0.7858,-0.7859,-0.7859,-0.7858,-0.7859,-0.786,-0.7848,-0.7848,-0.7848,0,0,-0.7919,-0.7915,-0.7915,-0.7911,-0.7905,-0.79,-0.79,-0.7893,-0.789,-0.7888,-0.7881,-0.7879,-0.7873,-0.7869,-0.7866,-0.7871,-0.7866,-0.787,-0.7875,-0.7875,-0.7876,-0.7876,-0.7878,-0.7879,-0.787,-0.787,-0.787,0,-0.7925,-0.7922,-0.7915,-0.7914,-0.7911,-0.7904,-0.7903,-0.79,-0.7893,-0.7891,-0.7889,-0.7881,-0.7876,-0.7874,-0.7875,-0.7873,-0.7873,-0.7871,-0.7876,-0.7877,-0.7877,-0.7879,-0.788,-0.7871,-0.7871,-0.7871,-0.7871,0,-0.793,-0.7928,-0.7928,-0.7922,-0.792,-0.7919,-0.7912,-0.791,-0.7905,-0.7901,-0.7898,-0.7892,-0.7887,-0.7886,-0.7882,-0.7883,-0.7882,-0.7878,-0.7873,-0.7879,-0.788,-0.7881,-0.7872,-0.7871,-0.7871,-0.7871,0,0,-0.7943,-0.7933,-0.7933,-0.793,-0.7923,-0.7921,-0.792,-0.7915,-0.7914,-0.7909,-0.7908,-0.7903,-0.7899,-0.7896,-0.7891,-0.7891,-0.7895,-0.7886,-0.7886,-0.7888,-0.7896,-0.7899,-0.79,-0.7892,-0.7892,-0.7892,-0.7896,0,-0.7948,-0.7946,-0.794,-0.7939,-0.7937,-0.7929,-0.7928,-0.7923,-0.7919,-0.7916,-0.7911,-0.7908,-0.7903,-0.7901,-0.79,-0.7895,-0.7896,-0.7894,-0.789,-0.789,-0.7892,-0.7901,-0.7904,-0.7909,-0.7897,-0.7897,-0.7897,0,-0.7955,-0.7951,-0.795,-0.7943,-0.7942,-0.7941,-0.7936,-0.7934,-0.7928,-0.7925,-0.7922,-0.7916,-0.7914,-0.7909,-0.7906,-0.7904,-0.7902,-0.7899,-0.7899,-0.7899,-0.7894,-0.79,-0.791,-0.7911,-0.7898,-0.7898,-0.7898,0,-0.7964,-0.7959,-0.7958,-0.7955,-0.7947,-0.7947,-0.7943,-0.7938,-0.7935,-0.7931,-0.7929,-0.7925,-0.7922,-0.7918,-0.7911,-0.7909,-0.7909,-0.7904,-0.7906,-0.7906,-0.7906,-0.7906,-0.7916,-0.7905,-0.7905,-0.7905,-0.7905,0,-0.7971,-0.7971,-0.7962,-0.7961,-0.7961,-0.7953,-0.7953,-0.7949,-0.7944,-0.7942,-0.7935,-0.7933,-0.7924,-0.7921,-0.7916,-0.7914,-0.7912,-0.7909,-0.7908,-0.791,-0.7911,-0.7909,-0.7908,-0.7905,-0.7905,-0.7905,-0.7905,0,-0.7982,-0.7976,-0.7974,-0.7966,-0.7964,-0.7964,-0.7958,-0.7957,-0.7952,-0.7949,-0.7948,-0.794,-0.7936,-0.7929,-0.7923,-0.792,-0.7919,-0.7916,-0.7921,-0.792,-0.7922,-0.7922,-0.7931,-0.7932,-0.792,-0.792,-0.792,0,-0.7987,-0.7986,-0.7979,-0.7977,-0.7974,-0.7972,-0.7969,-0.7962,-0.796,-0.7953,-0.7953,-0.7949,-0.7945,-0.7939,-0.7932,-0.7928,-0.7925,-0.7929,-0.7924,-0.7926,-0.7925,-0.7925,-0.7925,-0.793,-0.793,-0.793,-0.793,0,-0.7996,-0.7993,-0.799,-0.7986,-0.7984,-0.798,-0.7976,-0.7975,-0.7967,-0.7964,-0.7961,-0.7958,-0.7952,-0.7947,-0.7942,-0.7938,-0.7932,-0.7931,-0.7931,-0.7934,-0.7936,-0.7935,-0.7923,-0.7931,-0.7931,-0.7931,-0.7931,-0.7931,-0.8004,-0.8004,-0.7998,-0.7995,-0.7991,-0.7988,-0.7986,-0.7981,-0.7978,-0.7973,-0.7969,-0.7965,-0.7959,-0.7951,-0.7948,-0.7944,-0.7942,-0.7942,-0.7942,-0.7942,-0.7943,-0.7937,-0.7943,-0.7943,-0.7943,-0.7943,-0.7943,0,-0.8013,-0.801,-0.8007,-0.8001,-0.7999,-0.7994,-0.799,-0.7988,-0.7985,-0.798,-0.7977,-0.7972,-0.7968,-0.7961,-0.7956,-0.7955,-0.7952,-0.7954,-0.7954,-0.7953,-0.7946,-0.7946,-0.7956,-0.7956,-0.7956,-0.7956,-0.7956,-0.7956,-0.8018,-0.8017,-0.8013,-0.8009,-0.8006,-0.8002,-0.8,-0.7997,-0.7993,-0.7988,-0.7985,-0.7981,-0.7975,-0.7969,-0.7965,-0.7963,-0.7962,-0.7964,-0.7961,-0.7955,-0.7954,-0.7952,-0.7953,-0.7964,-0.7964,-0.7969,-0.7969,-0.7969]},{"header":{"parameterUnit":"m.s-1","parameterCategory":1,"la1":30.2991,"la2":30.254,"lo1":-89.0895,"lo2":-89.0444,"dy":0.0017,"dx":0.0017,"nx":28,"ny":28,"refTime":"2024-03-01T09:00:00:Z","depth":0,"parameterNumber":3,"parameterNumberName":"V-component_of_WINDS"},"data":[0,0,0,0,0,0,0,0,0,0,0,0,0,0,0,0,0,0,0,0,0,0,0,0,0,0,0,0,0,0,0,0,0,0,0,0,0,0,0,0,0,0,0,0,0,0,0,0,0,0,0,0,0,0,0,0,0,0,-2.6677,-2.6677,0,-2.6713,-2.6713,-2.6713,-2.6702,-2.6702,-2.6701,-2.67,-2.6732,-2.6734,-2.6735,0,0,0,0,0,0,0,0,0,0,0,0,0,-2.6595,-2.6596,-2.6677,-2.6678,-2.6678,-2.6713,-2.6713,-2.6714,-2.6703,-2.6702,-2.6701,-2.67,-2.6732,-2.6733,-2.6735,0,0,0,0,0,0,0,0,0,0,0,0,0,-2.663,-2.6597,-2.6677,-2.6677,-2.6677,-2.6713,-2.6713,-2.6714,-2.6703,-2.6702,-2.67,-2.6699,-2.6731,-2.6733,-2.6735,-2.6772,0,0,-2.6743,-2.6744,0,0,0,0,0,0,0,0,-2.6628,-2.6633,-2.6676,-2.6677,-2.6677,-2.6702,-2.6696,-2.6733,-2.6703,-2.6693,-2.67,-2.6699,-2.6723,-2.6726,-2.6735,-2.6773,-2.6775,-2.6743,-2.6744,-2.6745,-2.6746,0,0,0,0,0,0,0,-2.6626,-2.6632,-2.6691,-2.6677,-2.6678,-2.6673,-2.6677,-2.6703,-2.6713,-2.6694,-2.6693,-2.6698,-2.6723,-2.6732,-2.6735,-2.6775,-2.6743,-2.6745,-2.6746,-2.6747,-2.6845,-2.6847,0,0,0,0,0,0,-2.6624,-2.663,-2.669,-2.6692,-2.665,-2.6676,-2.668,-2.6695,-2.6713,-2.6715,-2.6698,-2.6697,-2.6729,-2.6733,-2.6736,-2.678,-2.6745,-2.6747,-2.6749,-2.6844,-2.6846,-2.6847,0,0,0,0,0,0,-2.6622,-2.6629,-2.6688,-2.6661,-2.6668,-2.6678,-2.6695,-2.6696,-2.6706,-2.6717,-2.6718,-2.6707,-2.6728,-2.6733,-2.6763,-2.6781,-2.6748,-2.675,-2.6843,-2.6845,-2.6846,-2.6868,0,0,0,0,0,0,-2.662,-2.6629,-2.6644,-2.6661,-2.667,-2.6716,-2.6697,-2.6698,-2.6711,-2.6709,-2.6725,-2.6726,-2.6728,-2.676,-2.6766,-2.6784,-2.6752,-2.6841,-2.6844,-2.6846,-2.6866,-2.6871,-2.6875,0,0,0,0,0,-2.6617,-2.6647,-2.6645,-2.6652,-2.6689,-2.6717,-2.6722,-2.6724,-2.6712,-2.6727,-2.6734,-2.6726,-2.6778,-2.6763,-2.677,-2.6788,-2.684,-2.6843,-2.6846,-2.6864,-2.687,-2.6875,0,0,0,0,0,0,-2.663,-2.665,-2.6647,-2.6684,-2.67,-2.6716,-2.6734,-2.673,-2.6748,-2.6745,-2.6746,-2.6749,-2.6781,-2.6787,-2.677,-2.6825,-2.6807,-2.6811,-2.6819,-2.6825,-2.6829,-2.6826,-2.6754,0,0,0,0,0,-2.6637,-2.6661,-2.6676,-2.6707,-2.6715,-2.6724,-2.6736,-2.6737,-2.6752,-2.6757,-2.6766,-2.678,-2.68,-2.6812,-2.6831,-2.6867,-2.687,-2.6883,-2.6887,-2.6891,-2.6894,-2.6914,-2.692,-2.6856,-2.6856,-2.6856,0,0,-2.6652,-2.6666,-2.668,-2.671,-2.6722,-2.6745,-2.6729,-2.6753,-2.677,-2.6761,-2.6791,-2.6798,-2.6813,-2.6846,-2.6861,-2.6853,-2.6912,-2.6894,-2.6897,-2.6899,-2.6917,-2.6923,-2.6928,-2.6858,-2.6858,-2.6857,0,0,-2.6692,-2.6705,-2.6733,-2.6745,-2.6764,-2.6769,-2.6776,-2.6793,-2.6798,-2.6828,-2.6822,-2.6841,-2.6874,-2.6886,-2.6896,-2.694,-2.6933,-2.6945,-2.6968,-2.6987,-2.6992,-2.6996,-2.7012,-2.7017,-2.6949,-2.6949,-2.6949,0,-2.6708,-2.6743,-2.6747,-2.6773,-2.6786,-2.678,-2.6808,-2.6819,-2.6842,-2.6851,-2.6841,-2.6884,-2.6894,-2.693,-2.694,-2.6949,-2.6956,-2.6944,-2.6991,-2.6995,-2.7,-2.7014,-2.702,-2.695,-2.695,-2.695,-2.695,0,-2.6762,-2.6787,-2.6806,-2.6831,-2.6846,-2.6873,-2.6879,-2.6893,-2.6893,-2.6899,-2.6929,-2.6941,-2.6962,-2.697,-2.6969,-2.7006,-2.7,-2.6991,-2.6973,-2.7007,-2.7021,-2.7027,-2.6952,-2.6952,-2.6951,-2.6951,0,0,-2.681,-2.6837,-2.6844,-2.6856,-2.6876,-2.6894,-2.692,-2.6942,-2.6955,-2.6971,-2.6991,-2.702,-2.7012,-2.7024,-2.7024,-2.704,-2.7074,-2.7029,-2.7029,-2.7037,-2.7115,-2.7122,-2.7129,-2.707,-2.7071,-2.7072,-2.7114,0,-2.6851,-2.6898,-2.6902,-2.6944,-2.6966,-2.6962,-2.6984,-2.6998,-2.7004,-2.7023,-2.7029,-2.7049,-2.7037,-2.7044,-2.706,-2.7067,-2.709,-2.7064,-2.7089,-2.7089,-2.7085,-2.7136,-2.7143,-2.7183,-2.712,-2.712,-2.7121,0,-2.6905,-2.6925,-2.697,-2.6988,-2.6997,-2.7017,-2.7038,-2.7056,-2.7072,-2.7075,-2.7088,-2.7086,-2.7111,-2.7093,-2.7127,-2.7109,-2.7119,-2.7124,-2.7125,-2.7127,-2.7107,-2.714,-2.7195,-2.7201,-2.713,-2.7129,-2.7128,0,-2.6936,-2.6973,-2.7005,-2.7015,-2.7036,-2.705,-2.706,-2.7075,-2.7088,-2.7105,-2.7113,-2.7133,-2.7144,-2.7158,-2.7161,-2.7147,-2.7195,-2.7177,-2.7197,-2.7197,-2.7207,-2.7206,-2.7265,-2.7214,-2.7214,-2.7214,-2.7214,0,-2.6981,-2.7008,-2.7019,-2.7039,-2.7069,-2.7073,-2.7102,-2.711,-2.7123,-2.7143,-2.7139,-2.7158,-2.716,-2.7179,-2.7181,-2.7208,-2.7213,-2.7215,-2.7216,-2.7216,-2.7216,-2.7222,-2.722,-2.7215,-2.7215,-2.7215,-2.7214,0,-2.702,-2.7029,-2.7063,-2.7081,-2.7086,-2.7108,-2.7123,-2.714,-2.7146,-2.7172,-2.7177,-2.7186,-2.7208,-2.7212,-2.7237,-2.7239,-2.7272,-2.7269,-2.7267,-2.7267,-2.7287,-2.7285,-2.7351,-2.736,-2.7304,-2.7304,-2.7305,0,-2.7049,-2.707,-2.7091,-2.7105,-2.7116,-2.7138,-2.7152,-2.7156,-2.717,-2.719,-2.7205,-2.7227,-2.7245,-2.728,-2.7287,-2.7306,-2.7304,-2.7326,-2.7307,-2.7306,-2.7304,-2.7303,-2.7305,-2.733,-2.733,-2.7331,-2.7331,0,-2.7098,-2.7102,-2.7123,-2.7146,-2.7163,-2.718,-2.7197,-2.7208,-2.7214,-2.723,-2.7254,-2.7267,-2.7294,-2.7315,-2.7335,-2.7342,-2.7338,-2.7337,-2.7343,-2.7343,-2.7341,-2.7343,-2.7277,-2.7336,-2.7335,-2.7335,-2.7335,-2.7334,-2.7133,-2.7152,-2.717,-2.7193,-2.7207,-2.7223,-2.7241,-2.725,-2.727,-2.7293,-2.7293,-2.7319,-2.7333,-2.7359,-2.7368,-2.7387,-2.738,-2.7388,-2.739,-2.7392,-2.7394,-2.7339,-2.739,-2.739,-2.739,-2.739,-2.739,0,-2.7182,-2.7194,-2.7216,-2.724,-2.7259,-2.7254,-2.7273,-2.7288,-2.7311,-2.7325,-2.7343,-2.737,-2.739,-2.74,-2.742,-2.7433,-2.7432,-2.7438,-2.7437,-2.7439,-2.7399,-2.7392,-2.744,-2.744,-2.744,-2.744,-2.744,-2.744,-2.721,-2.7242,-2.7247,-2.7285,-2.7296,-2.7322,-2.7333,-2.7347,-2.7359,-2.739,-2.7408,-2.7414,-2.7427,-2.7448,-2.7466,-2.7469,-2.7476,-2.7484,-2.7485,-2.7447,-2.7442,-2.7437,-2.7431,-2.7485,-2.7486,-2.7523,-2.7524,-2.7524]}]]